Skip Page Navigation
NASA JPL Caltech
NASA Logo - Jet Propulsion Laboratory + View the NASA Portal
+ Center for Near-Earth Object Studies
JPL Home Earth Solar System Stars & Galaxies Technology
JPL Solar System Dynamics
BODIES ORBITS EPHEMERIDES TOOLS PHYSICAL DATA DISCOVERY FAQ SITE MAP
JPL Small-Body Database Browser
Search: [ help ]  
413934 (2006 XD39)
Classification: Main-belt Asteroid          SPK-ID: 2413934
Ephemeris | Orbit Diagram | Orbital Elements | Mission Design | Physical Parameters | Discovery Circumstances ]

[ hide orbit diagram ]

For accurate long-term ephemerides, please instead use our Horizons system.This orbit viewer was implemented using two-body methods, and hence should not be used for determining accurate long-term trajectories (over several years or decades) or planetary encounter circumstances.


[ revert to old Java-based viewer ]

Orbital Elements at Epoch 2459000.5 (2020-May-31.0) TDB
Reference: JPL 15 (heliocentric ecliptic J2000)
 Element Value Uncertainty (1-sigma)   Units 
e .1570076047904711 8.7032e-08  
a 2.643284204181228 3.4955e-08 au
q 2.228268482502247 2.301e-07 au
i 6.229235870447956 6.6972e-06 deg
node 99.09705980078758 8.5406e-05 deg
peri 306.7705491902052 0.00010134 deg
M 90.3026540277547 4.9311e-05 deg
tp 2458606.757556861367
(2019-May-03.25755686)
0.00021219 TDB
period 1569.691179689377
4.30
3.1137e-05
8.525e-08
d
yr
n .2293444753070727 4.5493e-09 deg/d
Q 3.05829992586021 4.0443e-08 au
  Orbit Determination Parameters
   # obs. used (total)      106  
   data-arc span      4810 days (13.17 yr)  
   first obs. used      2006-12-01  
   last obs. used      2020-02-01  
   planetary ephem.      DE431  
   SB-pert. ephem.      SB431-N16  
   condition code      0  
   norm. resid. RMS      .62715  
   source      ORB  
   producer      Otto Matic  
   solution date      2020-Feb-26 07:02:59  

Additional Information
 Earth MOID = 1.24478 au 
 Jupiter MOID = 2.32915 au 
 T_jup = 3.368 
[ show covariance matrix ]

Ephemeris | Orbit Diagram | Orbital Elements | Mission Design | Physical Parameters | Discovery Circumstances ]

Physical Parameter Table
Parameter Symbol Value Units Sigma Reference Notes
absolute magnitude H 17.3   n/a MPO460573  

413934 (2006 XD39)          Discovered 2006-Dec-01 by Mt. Lemmon Survey at Mount Lemmon
Reference: Last Updated: 2014-11-10

Alternate Designations
 2006 XD39 = 2014 SS140 
Ephemeris | Orbit Diagram | Orbital Elements | Mission Design | Physical Parameters | Discovery Circumstances ]
ABOUT SSD CREDITS/AWARDS PRIVACY/COPYRIGHT GLOSSARY LINKS
FirstGov 2020-Aug-13 04:00 UT
(server date/time)  
NASA Home Page
Site Manager:   Ryan S. Park
Webmaster  Alan B. Chamberlin